KC0VVH Weather Reports


time (UTC)temp
F
wind
direction
speed
knots
gust
knots
rain 1hr
in
rain 24hr
in
rain mn
in
humidity
%
barometer
mb
20260508132715 57 0 0.0 0.0 0.00 0.00 0.00 42 1017.9
20260508131815 56 0 0.0 0.0 0.00 0.00 0.00 43 1017.9
20260508130903 54 0 0.0 0.0 0.00 0.00 0.00 45 1017.9
20260508130015 53 0 0.0 0.0 0.00 0.00 0.00 44 1017.9
20260508125424 52 0 0.0 0.0 0.00 0.00 0.00 44 1017.9
20260508124503 50 284 0.0 1.7 0.00 0.00 0.00 45 1017.9
20260508123603 49 0 0.0 0.0 0.00 0.00 0.00 47 1017.9
20260508122715 47 0 0.0 0.0 0.00 0.00 0.00 49 1017.9
20260508121815 48 0 0.0 0.0 0.00 0.00 0.00 50 1017.9
20260508120903 48 284 0.0 1.7 0.00 0.00 0.00 49 1017.9
20260508120036 47 0 0.0 0.0 0.00 0.00 0.00 52 1017.9
20260508115403 47 0 0.0 0.0 0.00 0.00 0.00 56 1017.9
20260508114515 47 0 0.0 0.0 0.00 0.00 0.00 57 1017.9
20260508113603 48 0 0.0 0.0 0.00 0.00 0.00 56 1017.9
20260508112703 48 0 0.0 0.0 0.00 0.00 0.00 56 1017.9
20260508111803 49 0 0.0 0.0 0.00 0.00 0.00 57 1017.9
20260508110915 49 0 0.0 0.0 0.00 0.00 0.00 54 1017.9
20260508110015 49 0 0.0 0.0 0.00 0.00 0.00 48 1017.9
20260508105424 50 0 0.0 0.0 0.00 0.00 0.00 48 1017.9
20260508104503 50 0 0.0 0.0 0.00 0.00 0.00 47 1017.9
20260508103615 51 0 0.0 0.0 0.00 0.00 0.00 46 1017.9
20260508102703 52 0 0.0 0.0 0.00 0.00 0.00 45 1017.9
20260508101815 52 0 0.0 0.0 0.00 0.00 0.00 44 1017.9
20260508100903 53 0 0.0 0.0 0.00 0.00 0.00 42 1017.9
20260508100015 52 284 0.0 0.9 0.00 0.00 0.00 44 1017.9
20260508095415 52 0 0.0 0.0 0.00 0.00 0.00 44 1017.9
20260508094515 52 0 0.0 0.0 0.00 0.00 0.00 42 1017.9
20260508093615 52 0 0.0 0.0 0.00 0.00 0.00 42 1017.9
20260508092736 52 0 0.0 0.0 0.00 0.00 0.00 43 1017.9
20260508091815 52 0 0.0 0.0 0.00 0.00 0.00 43 1017.9
20260508090924 53 0 0.0 0.0 0.00 0.00 0.00 42 1017.9
20260508090015 54 0 0.0 0.0 0.00 0.00 0.00 41 1017.9
20260508085415 54 0 0.0 0.0 0.00 0.00 0.00 40 1017.9
20260508084515 54 0 0.0 0.0 0.00 0.00 0.00 39 1017.9
20260508083615 55 0 0.0 0.0 0.00 0.00 0.00 37 1017.9
20260508082715 56 0 0.0 0.0 0.00 0.00 0.00 34 1017.9
20260508081803 57 0 0.0 0.0 0.00 0.00 0.00 33 1017.9
20260508080915 57 286 0.0 2.6 0.00 0.00 0.00 33 1017.9
20260508080036 57 286 0.0 2.6 0.00 0.00 0.00 32 1017.9
20260508075415 57 0 0.0 0.0 0.00 0.00 0.00 33 1017.9
20260508074515 58 0 0.0 0.0 0.00 0.00 0.00 32 1017.9
20260508073615 58 294 0.9 3.5 0.00 0.00 0.00 32 1017.9
20260508072703 58 0 0.0 0.0 0.00 0.00 0.00 33 1017.9
20260508071836 59 0 0.0 0.0 0.00 0.00 0.00 32 1017.9
20260508070915 60 0 0.0 0.0 0.00 0.00 0.00 30 1017.9
20260508070003 61 300 0.0 3.5 0.00 0.00 0.00 30 1017.9
20260508065436 61 301 0.0 3.5 0.00 0.00 0.00 28 1017.9
20260508064503 60 305 0.0 1.7 0.00 0.00 0.00 29 1017.9
20260508063636 61 0 0.0 0.0 0.00 0.00 0.00 30 1017.9
20260508062715 62 330 0.0 3.5 0.00 0.00 0.00 30 1017.9
20260508061815 63 348 0.9 6.1 0.00 0.00 0.00 30 1017.9
20260508060924 64 288 0.9 6.1 0.00 0.00 0.00 27 1017.9
20260508060003 65 233 0.9 4.3 0.00 0.00 0.00 25 1017.9
20260508055415 65 240 2.6 8.7 0.00 0.00 0.00 24 1017.9
20260508054503 65 249 3.5 7.8 0.00 0.00 0.00 24 1017.9
20260508053615 66 245 2.6 7.0 0.00 0.00 0.00 24 1017.9
20260508052715 66 238 0.9 4.3 0.00 0.00 0.00 24 1017.9
20260508051803 66 239 0.9 8.7 0.00 0.00 0.00 24 1017.9
20260508050915 66 237 1.7 7.8 0.00 0.00 0.00 24 1017.9
20260508050015 66 234 1.7 7.8 0.00 0.00 0.00 24 1017.9
20260508045415 66 222 0.9 6.1 0.00 0.00 0.00 25 1017.9
20260508044515 66 213 1.7 5.2 0.00 0.00 0.00 25 1017.9
20260508043615 65 213 0.9 3.5 0.00 0.00 0.00 25 1017.9
20260508042736 65 213 0.9 4.3 0.00 0.00 0.00 25 1017.9
20260508041824 65 0 0.0 0.0 0.00 0.00 0.00 26 1017.9
20260508040915 65 212 0.0 1.7 0.00 0.00 0.00 25 1017.9
20260508040015 65 212 0.0 1.7 0.00 0.00 0.00 25 1017.9
20260508035403 65 0 0.0 0.0 0.00 0.00 0.00 25 1017.9
20260508034524 65 213 0.0 3.5 0.00 0.00 0.00 25 1017.9
20260508033636 65 0 0.0 0.0 0.00 0.00 0.00 26 1017.9
20260508032702 65 0 0.0 0.0 0.00 0.00 0.00 26 1017.9
20260508031803 65 0 0.0 0.0 0.00 0.00 0.00 27 1017.9
20260508030915 66 0 0.0 0.0 0.00 0.00 0.00 27 1017.9
20260508030024 66 0 0.0 0.0 0.00 0.00 0.00 27 1017.9
20260508025415 66 0 0.0 0.0 0.00 0.00 0.00 27 1017.9
20260508024515 67 0 0.0 0.0 0.00 0.00 0.00 25 1017.9
20260508023603 68 0 0.0 0.0 0.00 0.00 0.00 25 1017.9
20260508022703 68 0 0.0 0.0 0.00 0.00 0.00 24 1017.9
20260508021815 68 212 0.0 1.7 0.00 0.00 0.00 23 1017.9
20260508020915 68 213 0.0 2.6 0.00 0.00 0.00 23 1017.9
20260508020015 69 0 0.0 0.0 0.00 0.00 0.00 23 1017.9
20260508015415 69 0 0.0 0.0 0.00 0.00 0.00 23 1017.9
20260508014515 69 0 0.0 0.9 0.00 0.00 0.00 23 1017.9
20260508013615 69 160 0.0 4.3 0.00 0.00 0.00 23 1017.9
20260508012715 69 44 0.9 3.5 0.00 0.00 0.00 23 1017.9
20260508011803 70 44 0.9 4.3 0.00 0.00 0.00 22 1017.9
20260508010936 71 42 0.0 3.5 0.00 0.00 0.00 22 1017.9
20260508010003 71 41 0.9 4.3 0.00 0.00 0.00 21 1017.9
20260508005436 71 41 0.9 4.3 0.00 0.00 0.00 21 1017.9
20260508004515 72 40 0.0 3.5 0.00 0.00 0.00 20 1017.9
20260508003615 73 40 0.9 3.5 0.00 0.00 0.00 20 1017.9
20260508002736 74 40 0.9 3.5 0.00 0.00 0.00 20 1017.9
20260508001803 74 40 0.9 3.5 0.00 0.00 0.00 19 1017.9
20260508000903 75 40 0.0 3.5 0.00 0.00 0.00 19 1017.9
20260508000003 74 40 0.9 4.3 0.00 0.00 0.00 18 1017.9
20260507235436 74 40 0.9 4.3 0.00 0.00 0.00 19 1017.9
20260507234515 73 38 1.7 4.3 0.00 0.00 0.00 19 1017.9
20260507233603 73 38 0.9 2.6 0.00 0.00 0.00 19 1017.9
20260507232715 74 38 0.9 3.5 0.00 0.00 0.00 18 1017.9
20260507231803 74 38 0.0 4.3 0.00 0.00 0.00 19 1017.9
20260507230915 74 34 1.7 7.8 0.00 0.00 0.00 19 1017.9
20260507230015 75 38 2.6 6.1 0.00 0.00 0.00 18 1017.9
20260507225415 75 40 1.7 6.1 0.00 0.00 0.00 18 1017.9
20260507224524 75 36 0.9 5.2 0.00 0.00 0.00 18 1017.9
20260507223603 75 28 0.9 4.3 0.00 0.00 0.00 18 1017.9
20260507222736 74 33 1.7 7.0 0.00 0.00 0.00 18 1017.9
20260507221815 73 46 0.0 4.3 0.00 0.00 0.00 19 1017.9
20260507220915 74 37 1.7 4.3 0.00 0.00 0.00 17 1017.9
20260507220015 74 45 2.6 7.8 0.00 0.00 0.00 18 1017.9
20260507215424 73 57 2.6 6.1 0.00 0.00 0.00 19 1017.9
20260507214503 72 60 1.7 6.1 0.00 0.00 0.00 19 1017.9
20260507213615 73 31 0.9 5.2 0.00 0.00 0.00 19 1017.9
20260507212715 72 32 2.6 7.0 0.00 0.00 0.00 19 1017.9
20260507211815 72 29 0.9 4.3 0.00 0.00 0.00 20 1017.9
20260507210903 72 9 0.9 7.0 0.00 0.00 0.00 19 1017.9
20260507210015 71 8 1.7 7.8 0.00 0.00 0.00 19 1017.9
20260507205403 71 11 1.7 7.8 0.00 0.00 0.00 19 1017.9
20260507204515 70 42 2.6 7.0 0.00 0.00 0.00 21 1017.9
20260507203603 69 43 1.7 6.1 0.00 0.00 0.00 21 1017.9
20260507202715 69 35 1.7 7.0 0.00 0.00 0.00 21 1017.9
20260507201815 68 82 0.9 7.0 0.00 0.00 0.00 22 1017.9
20260507200915 67 37 0.9 3.5 0.00 0.00 0.00 22 1017.9
20260507200015 68 46 2.6 9.6 0.00 0.00 0.00 21 1017.9
20260507195403 68 42 3.5 9.6 0.00 0.00 0.00 21 1017.9
20260507194503 68 21 0.9 5.2 0.00 0.00 0.00 20 1017.9
20260507193636 68 40 2.6 5.2 0.00 0.00 0.00 21 1017.9
20260507192703 68 29 1.7 6.1 0.00 0.00 0.00 21 1017.9
20260507191815 66 15 1.7 6.1 0.00 0.00 0.00 22 1017.9
20260507190903 66 46 1.7 6.1 0.00 0.00 0.00 22 1017.9
20260507190036 66 50 1.7 7.0 0.00 0.00 0.00 21 1017.9
20260507185403 66 37 1.7 7.0 0.00 0.00 0.00 21 1017.9
20260507184515 65 19 0.9 4.3 0.00 0.00 0.00 22 1017.9
20260507183615 64 13 0.9 7.0 0.00 0.00 0.00 23 1017.9
20260507182703 64 41 0.9 4.3 0.00 0.00 0.00 22 1017.9
20260507181803 64 10 1.7 7.0 0.00 0.00 0.00 22 1017.9
20260507180903 64 12 1.7 7.0 0.00 0.00 0.00 22 1017.9
20260507180015 64 28 1.7 7.8 0.00 0.00 0.00 23 1017.9
20260507175424 63 31 0.9 7.0 0.00 0.00 0.00 22 1017.9
20260507174515 63 44 1.7 7.8 0.00 0.00 0.00 22 1017.9
20260507173615 62 27 0.9 7.0 0.00 0.00 0.00 22 1017.9
20260507172715 62 27 0.9 7.0 0.00 0.00 0.00 23 1017.9
20260507171815 61 328 0.0 4.3 0.00 0.00 0.00 23 1017.9
20260507170915 60 348 0.9 4.3 0.00 0.00 0.00 23 1017.9
20260507170015 58 175 0.0 3.5 0.00 0.00 0.00 26 1017.9
20260507165415 58 104 0.9 4.3 0.00 0.00 0.00 27 1017.9
20260507164503 58 61 0.0 3.5 0.00 0.00 0.00 26 1017.9
20260507163636 58 61 0.0 3.5 0.00 0.00 0.00 29 1017.9
20260507162703 58 56 1.7 7.0 0.00 0.00 0.00 27 1017.9
20260507161803 57 62 0.9 5.2 0.00 0.00 0.00 29 1017.9
20260507160915 56 68 0.9 5.2 0.00 0.00 0.00 30 1017.9
20260507160036 56 37 0.0 6.1 0.00 0.00 0.00 30 1017.9
20260507155415 55 55 0.9 7.0 0.00 0.00 0.00 31 1017.9
20260507154515 54 59 1.7 8.7 0.00 0.00 0.00 32 1017.9
20260507153615 52 151 2.6 10.4 0.00 0.00 0.00 35 1017.9
20260507152736 50 201 4.3 10.4 0.00 0.00 0.00 36 1017.9
20260507151803 50 210 3.5 10.4 0.00 0.00 0.00 38 1017.9
20260507150915 50 207 2.6 9.6 0.00 0.00 0.00 38 1017.9
20260507150015 50 52 0.9 8.7 0.00 0.00 0.00 39 1017.9
20260507145415 50 76 0.0 4.3 0.00 0.00 0.00 39 1017.9
20260507144503 49 149 0.9 7.0 0.00 0.00 0.00 40 1017.9
20260507143615 49 49 0.0 5.2 0.00 0.00 0.00 40 1017.9
20260507142715 48 43 0.0 2.6 0.00 0.00 0.00 42 1017.9
20260507141815 48 43 0.0 2.6 0.00 0.00 0.00 41 1017.9
20260507140936 47 44 0.0 2.6 0.00 0.00 0.00 43 1017.9
20260507140003 46 50 0.0 4.3 0.00 0.00 0.00 44 1017.9
20260507135415 46 58 0.0 4.3 0.00 0.00 0.00 45 1017.9
20260507134524 45 55 0.9 6.1 0.00 0.00 0.00 45 1017.9
20260507133615 45 57 0.9 4.3 0.00 0.00 0.00 45 1017.9